Погода в Архангельском

Россия / Ставропольский край     44˚36′53″N   44˚05′23″E
темп.,
°C
ветер,
м/с
пор.,
м/с
влажн.,
%
обл.,
%
осадки,
мм/ч
давл.,
гПа
погр.,
м
18 января, пн
пн1800:00−1˚в5888100 0.1 1005406
03:00−1˚св3495100 0.3 1006264
06:00−2˚ссв1295100 0.5 1008164
09:00−2˚ссз3494100 0.8 1010249
12:00+2˚зсз81169100 0.1 1012853
15:00зсз71065100 0.1 1012885
18:00−2˚сз61172100 0.0 1015755
21:00−3˚сз61073100 0.0 1017758
19 января, вт
вт1900:00−2˚сз5975100 0.0 1018667
03:00−3˚сз3678100 0.0 1019848
06:00−3˚зсз2490100 0.2 1020299
09:00−2˚ю3585100 0.3 1021346
12:00ю23657 0.0 1020689
15:00+1˚ююв126119 0.0 1018839
18:00−1˚вюв237552 0.0 102042
21:00−2˚юв247961 0.0 1021121
20 января, ср
ср2000:00−4˚с579297 0.2 1023329
03:00−3˚ссв249398 0.8 1024300
06:00−4˚с238499 0.4 1025323
09:00−4˚з127999 0.5 1026397
12:00−2˚юз2273100 0.1 1025602
15:00−1˚ююз1266100 0.1 1025721
18:00−3˚ю237788 0.0 102748
21:00−3˚юз258194 0.0 1028246
21 января, чт
чт2100:00−3˚зюз3591100 0.1 1029431
03:00−3˚зюз1285100 0.3 1030141
06:00−4˚ссв129094 0.0 103166
09:00−4˚вюв238473 0.0 1031171
12:00−1˚ю226467 0.0 1030589
15:00юв015982 0.0 1030525
18:00−1˚вюв227196 0.0 103225
21:00−2˚ююв347784 0.0 103391
22 января, пт
пт2200:00−2˚ююз238013 0.0 103350
03:00−1˚ююз227314 0.0 103326
06:00−1˚ююз23700 0.0 103222
09:00ю34610 0.0 1032118
12:00+4˚ююв34580 0.0 1030328
15:00+4˚юв34650 0.0 1029418
18:00юв34810 0.0 102947
21:00−1˚ююв34800 0.0 102961